Regional Weather Roundup
Issued by NWS

Home | Current Version | Previous Version | Text Only | Print | Product List | Glossary On
Versions: 1 2 3 4 5 6 7 8 9 10 11 12 13 14 15 16 17 18 19 20 21 22 23 24 25 26 27 28 29 30 31 32 33 34 35 36 37 38 39 40 41 42 43 44 45 46 47 48 49 50
000
ASUS43 KFSD 160702
RWRSD

WEATHER ROUNDUP FOR SOUTH DAKOTA
NATIONAL WEATHER SERVICE SIOUX FALLS SD
100 AM CST MON JAN 16 2017

NOTE: "FAIR" INDICATES FEW OR NO CLOUDS BELOW 12,000 FEET WITH NO
SIGNIFICANT WEATHER AND/OR OBSTRUCTIONS TO VISIBILITY.


SDZ001>005-009-010-012>017-160800-
NORTHWEST AND NORTH CENTRAL SOUTH DAKOTA

CITY           SKY/WX    TMP DP  RH WIND       PRES   REMARKS
BUFFALO          N/A     18   7  62 W6        29.97S WCI  10
FAITH            N/A      7   3  84 W12       30.04S WCI  -8
MOBRIDGE       CLOUDY     3  -3  76 SE6       30.05F WCI  -8
$$

SDZ012>016-024>037-041>051-057-063-072>074-160800-
SOUTHWEST AND SOUTH CENTRAL SOUTH DAKOTA

CITY           SKY/WX    TMP DP  RH WIND       PRES   REMARKS
RAPID CTY ARPT CLOUDY    24  10  55 NW9       30.03F WCI  14
PIERRE         CLOUDY     9   6  88 NW5       30.08F WCI   1
CUSTER         CLOUDY    26  15  63 NW5       30.00F WCI  20
ELLSWORTH AFB  CLOUDY    20   9  63 NW7       30.02F WCI  11
PHILIP         CLOUDY     9   6  88 W7        30.06F WCI  -2
PINE RIDGE     CLOUDY    20  17  88 E5        30.03S WCI  13
SPEARFISH      FAIR      25  14  63 SW5       30.04S WCI  19
WINNER         PTSUNNY   20  17  88 NW3       30.06S
$$

SDZ004>011-016>023-039-040-160800-
NORTHEAST SOUTH DAKOTA

CITY           SKY/WX    TMP DP  RH WIND       PRES   REMARKS
ABERDEEN       CLOUDY     0  -5  79 S7        30.11S WCI -13
WATERTOWN      CLOUDY    14  12  92 S7        30.09F FOG     WCI   4
BROOKINGS      CLOUDY    13  10  88 SE5       30.10F WCI   5
SISSETON         N/A     32  22  66 VRB6      30.07F WCI  26
$$

SDZ017-020-022-023-036>040-048>070-160800-
SOUTHEAST SOUTH DAKOTA

CITY           SKY/WX    TMP DP  RH WIND       PRES   REMARKS
SIOUX FALLS    CLOUDY    21  17  84 NE3       30.12F
HURON          CLOUDY     8   6  92 NW6       30.11F WCI  -2
CHAMBERLAIN    CLOUDY    19  15  86 N3        30.08F
MITCHELL       CLOUDY    21  18  88 SE5       30.12F WCI  15
YANKTON        CLOUDY    28  19  69 E3        30.11S
$$

ABBREVIATIONS USED IN REMARKS
   TC - TEMPERATURE IN CELSIUS
  WCI - WIND CHILL INDEX
   HX - HEAT INDEX
  VSB - VISIBILITY





USA.gov is the U.S. government's official web portal to all federal, state and local government web resources and services.